Change the Weather History Date:

Tuesday, July 9, 2013

  Actual Average Record
Temperature  
Mean Temperature 74 °F 72 °F  
Max Temperature 93 °F 88 °F 108 °F (1989)
Min Temperature 55 °F 55 °F 38 °F (1911)
Degree Days  
Heating Degree Days 0 0  
Month to date heating degree days 0 5  
Since 1 June heating degree days 62 98  
Since 1 July heating degree days 0 5  
Cooling Degree Days 9 7  
Month to date cooling degree days 67 57  
Year to date cooling degree days 213 155  
Since 1 June cooling degree days 191 145  
Growing Degree Days 24 (Base 50)    
Moisture  
Dew Point 59 °F    
Average Humidity 64    
Maximum Humidity 100    
Minimum Humidity 28    
Precipitation  
Precipitation 0.00 in 0.08 in 1.75 in (1915)
Month to date precipitation T 0.68  
Year to date precipitation 6.72 9.07  
Sea Level Pressure  
Sea Level Pressure 29.98 in    
Wind  
Wind Speed 6 mph (NE)    
Max Wind Speed 15 mph    
Max Gust Speed 17 mph    
Visibility 10 miles    
Events      
T = Trace of Precipitation, MM = Missing Value Source: NWS Daily Summary

Daily Weather History Graph

Daily Weather History Graph

Search for Another Location

Airport or City:

Trip Planner

Search our weather history database for the weather conditions in past years. The results will help you decide how hot, cold, wet, or windy it might be!

Date:

Astronomy

Jul. 09, 2013 Rise Set
Actual Time 5:24 AM MDT 8:28 PM MDT
Civil Twilight 4:50 AM MDT 9:02 PM MDT
Nautical Twilight 4:07 AM MDT 9:45 PM MDT
Astronomical Twilight 3:16 AM MDT 10:36 PM MDT
Moon 6:53 AM MDT (7/9) 9:04 PM MDT (7/9)
Length of Visible Light 16h 11m
Length of Day
15h 03m
New Moon, 2% of the Moon is Illuminated
Jul 9
New Moon
Jul 15
First Quarter
Jul 22
Full
Jul 29
Last Quarter
Aug 6
New

Hourly Weather History & Observations

Time (MDT) Temp. Heat Index Dew Point Humidity Pressure Visibility Wind Dir Wind Speed Gust Speed Precip Events Conditions
12:53 AM 62.1 °F - 60.1 °F 93% 29.91 in 10.0 mi North - - N/A   Clear
1:53 AM 59.0 °F - 57.9 °F 96% 29.91 in 10.0 mi North - - N/A   Clear
2:53 AM 62.1 °F - 60.1 °F 93% 29.94 in 10.0 mi North - - N/A   Clear
3:53 AM 60.1 °F - 57.9 °F 93% 29.93 in 10.0 mi North - - N/A   Clear
4:53 AM 57.9 °F - 57.0 °F 97% 29.92 in 10.0 mi North - - N/A   Clear
5:53 AM 57.9 °F - 55.9 °F 93% 29.93 in 10.0 mi North - - N/A   Clear
6:53 AM 62.1 °F - 59.0 °F 90% 29.95 in 10.0 mi North - - N/A   Clear
7:53 AM 66.0 °F - 61.0 °F 84% 30.00 in 10.0 mi NNW 5.8 mph - N/A   Clear
8:53 AM 72.0 °F - 61.0 °F 68% 30.01 in 10.0 mi Variable 3.5 mph - N/A   Clear
9:53 AM 78.1 °F - 59.0 °F 52% 30.00 in 10.0 mi Calm Calm - N/A   Clear
10:53 AM 84.0 °F 83.3 °F 57.0 °F 40% 30.00 in 10.0 mi North 10.4 mph - N/A   Clear
11:53 AM 84.9 °F 85.0 °F 61.0 °F 44% 30.00 in 10.0 mi NE 8.1 mph - N/A   Clear
12:53 PM 86.0 °F 86.1 °F 61.0 °F 43% 30.00 in 10.0 mi NNE 6.9 mph 16.1 mph N/A   Clear
1:53 PM 88.0 °F 86.9 °F 57.9 °F 36% 29.99 in 10.0 mi Variable 6.9 mph - N/A   Clear
2:53 PM 89.1 °F 87.7 °F 57.0 °F 34% 29.98 in 10.0 mi NE 8.1 mph - N/A   Clear
3:53 PM 91.9 °F 89.5 °F 54.0 °F 27% 29.96 in 10.0 mi Variable 5.8 mph - N/A   Clear
4:53 PM 91.9 °F 90.0 °F 55.0 °F 29% 29.96 in 10.0 mi NE 12.7 mph - N/A   Clear
5:53 PM 89.1 °F 87.1 °F 55.0 °F 31% 29.97 in 10.0 mi NNE 10.4 mph - N/A   Clear
6:53 PM 84.0 °F 83.8 °F 59.0 °F 43% 29.98 in 10.0 mi East 8.1 mph - N/A   Clear
7:53 PM 82.0 °F 82.4 °F 60.1 °F 47% 30.01 in 10.0 mi East 6.9 mph - N/A   Clear
8:53 PM 75.9 °F - 61.0 °F 60% 30.03 in 10.0 mi East 6.9 mph - N/A   Clear
9:53 PM 70.0 °F - 61.0 °F 73% 30.05 in 10.0 mi NE 8.1 mph - N/A   Clear
10:53 PM 66.9 °F - 60.1 °F 79% 30.05 in 10.0 mi East 3.5 mph - N/A   Clear
11:53 PM 64.9 °F - 60.1 °F 84% 30.07 in 10.0 mi Calm Calm - N/A   Clear